Date_Time,Julian_Date,Latitude,Longitude,Instrument_Depth,Water_Temperature
(yyyy-mm-dd hh:mn:ss UTC),(JD),(+ deg. North),(+ deg. East),(m),(deg. C)
1981-08-01 00:00:00 UTC,2444817.500000,28.7944,-95.3222,0180,29.8000
1981-08-01 01:00:00 UTC,2444817.541667,28.7944,-95.3222,0180,29.8000
1981-08-01 02:00:00 UTC,2444817.583333,28.7944,-95.3222,0180,29.8000
1981-08-01 03:00:00 UTC,2444817.625000,28.7944,-95.3222,0180,29.8000
1981-08-01 04:00:00 UTC,2444817.666667,28.7944,-95.3222,0180,29.8000
1981-08-01 05:00:00 UTC,2444817.708333,28.7944,-95.3222,0180,29.7000
1981-08-01 06:00:00 UTC,2444817.750000,28.7944,-95.3222,0180,29.7000
1981-08-01 07:00:00 UTC,2444817.791667,28.7944,-95.3222,0180,29.7000
1981-08-01 08:00:00 UTC,2444817.833333,28.7944,-95.3222,0180,29.7000
1981-08-01 09:00:00 UTC,2444817.875000,28.7944,-95.3222,0180,29.7000
1981-08-01 10:00:00 UTC,2444817.916667,28.7944,-95.3222,0180,29.7000
1981-08-01 11:00:00 UTC,2444817.958333,28.7944,-95.3222,0180,29.7000
1981-08-01 12:00:00 UTC,2444818.000000,28.7944,-95.3222,0180,29.7000
1981-08-01 13:00:00 UTC,2444818.041667,28.7944,-95.3222,0180,29.7000
1981-08-01 14:00:00 UTC,2444818.083333,28.7944,-95.3222,0180,29.7000
1981-08-01 15:00:00 UTC,2444818.125000,28.7944,-95.3222,0180,29.7000
1981-08-01 16:00:00 UTC,2444818.166667,28.7944,-95.3222,0180,29.7000
1981-08-01 17:00:00 UTC,2444818.208333,28.7944,-95.3222,0180,29.7000
1981-08-01 18:00:00 UTC,2444818.250000,28.7944,-95.3222,0180,29.7000
1981-08-01 19:00:00 UTC,2444818.291667,28.7944,-95.3222,0180,29.7000
1981-08-01 20:00:00 UTC,2444818.333333,28.7944,-95.3222,0180,29.7000
1981-08-01 21:00:00 UTC,2444818.375000,28.7944,-95.3222,0180,29.6000
1981-08-01 22:00:00 UTC,2444818.416667,28.7944,-95.3222,0180,29.6000
1981-08-01 23:00:00 UTC,2444818.458333,28.7944,-95.3222,0180,29.6000
1981-08-02 00:00:00 UTC,2444818.500000,28.7944,-95.3222,0180,29.6000
1981-08-02 01:00:00 UTC,2444818.541667,28.7944,-95.3222,0180,29.6000
1981-08-02 02:00:00 UTC,2444818.583333,28.7944,-95.3222,0180,29.6000
1981-08-02 03:00:00 UTC,2444818.625000,28.7944,-95.3222,0180,29.6000
1981-08-02 04:00:00 UTC,2444818.666667,28.7944,-95.3222,0180,29.6000
1981-08-02 05:00:00 UTC,2444818.708333,28.7944,-95.3222,0180,29.6000
1981-08-02 06:00:00 UTC,2444818.750000,28.7944,-95.3222,0180,29.5000
1981-08-02 07:00:00 UTC,2444818.791667,28.7944,-95.3222,0180,29.5000
1981-08-02 08:00:00 UTC,2444818.833333,28.7944,-95.3222,0180,29.5000
1981-08-02 09:00:00 UTC,2444818.875000,28.7944,-95.3222,0180,29.5000
1981-08-02 10:00:00 UTC,2444818.916667,28.7944,-95.3222,0180,29.5000
1981-08-02 11:00:00 UTC,2444818.958333,28.7944,-95.3222,0180,29.5000
1981-08-02 12:00:00 UTC,2444819.000000,28.7944,-95.3222,0180,29.5000
1981-08-02 13:00:00 UTC,2444819.041667,28.7944,-95.3222,0180,29.5000
1981-08-02 14:00:00 UTC,2444819.083333,28.7944,-95.3222,0180,29.5000
1981-08-02 15:00:00 UTC,2444819.125000,28.7944,-95.3222,0180,29.5000
1981-08-02 16:00:00 UTC,2444819.166667,28.7944,-95.3222,0180,29.6000
1981-08-02 17:00:00 UTC,2444819.208333,28.7944,-95.3222,0180,29.6000
1981-08-02 18:00:00 UTC,2444819.250000,28.7944,-95.3222,0180,29.7000
1981-08-02 19:00:00 UTC,2444819.291667,28.7944,-95.3222,0180,29.7000
1981-08-02 20:00:00 UTC,2444819.333333,28.7944,-95.3222,0180,29.7000
1981-08-02 21:00:00 UTC,2444819.375000,28.7944,-95.3222,0180,29.7000
1981-08-02 22:00:00 UTC,2444819.416667,28.7944,-95.3222,0180,29.8000
1981-08-02 23:00:00 UTC,2444819.458333,28.7944,-95.3222,0180,29.8000
1981-08-03 00:00:00 UTC,2444819.500000,28.7944,-95.3222,0180,29.8000
1981-08-03 01:00:00 UTC,2444819.541667,28.7944,-95.3222,0180,29.8000
1981-08-03 02:00:00 UTC,2444819.583333,28.7944,-95.3222,0180,29.8000
1981-08-03 03:00:00 UTC,2444819.625000,28.7944,-95.3222,0180,29.7000
1981-08-03 04:00:00 UTC,2444819.666667,28.7944,-95.3222,0180,29.7000
1981-08-03 05:00:00 UTC,2444819.708333,28.7944,-95.3222,0180,29.7000
1981-08-03 06:00:00 UTC,2444819.750000,28.7944,-95.3222,0180,29.7000
1981-08-03 07:00:00 UTC,2444819.791667,28.7944,-95.3222,0180,29.7000
1981-08-03 08:00:00 UTC,2444819.833333,28.7944,-95.3222,0180,29.6000
1981-08-03 09:00:00 UTC,2444819.875000,28.7944,-95.3222,0180,29.6000
1981-08-03 10:00:00 UTC,2444819.916667,28.7944,-95.3222,0180,29.6000
1981-08-03 11:00:00 UTC,2444819.958333,28.7944,-95.3222,0180,29.5000
1981-08-03 12:00:00 UTC,2444820.000000,28.7944,-95.3222,0180,29.5000
1981-08-03 13:00:00 UTC,2444820.041667,28.7944,-95.3222,0180,29.5000
1981-08-03 14:00:00 UTC,2444820.083333,28.7944,-95.3222,0180,29.5000
1981-08-03 15:00:00 UTC,2444820.125000,28.7944,-95.3222,0180,29.4000
1981-08-03 16:00:00 UTC,2444820.166667,28.7944,-95.3222,0180,29.3000
1981-08-03 17:00:00 UTC,2444820.208333,28.7944,-95.3222,0180,29.3000
1981-08-03 18:00:00 UTC,2444820.250000,28.7944,-95.3222,0180,29.3000
1981-08-03 19:00:00 UTC,2444820.291667,28.7944,-95.3222,0180,29.2000
1981-08-03 20:00:00 UTC,2444820.333333,28.7944,-95.3222,0180,29.1000
1981-08-03 21:00:00 UTC,2444820.375000,28.7944,-95.3222,0180,29.0000
1981-08-03 22:00:00 UTC,2444820.416667,28.7944,-95.3222,0180,29.0000
1981-08-03 23:00:00 UTC,2444820.458333,28.7944,-95.3222,0180,28.9000
1981-08-04 00:00:00 UTC,2444820.500000,28.7944,-95.3222,0180,28.9000
1981-08-04 01:00:00 UTC,2444820.541667,28.7944,-95.3222,0180,28.8000
1981-08-04 02:00:00 UTC,2444820.583333,28.7944,-95.3222,0180,28.8000
1981-08-04 03:00:00 UTC,2444820.625000,28.7944,-95.3222,0180,28.8000
1981-08-04 04:00:00 UTC,2444820.666667,28.7944,-95.3222,0180,28.8000
1981-08-04 05:00:00 UTC,2444820.708333,28.7944,-95.3222,0180,28.8000
1981-08-04 06:00:00 UTC,2444820.750000,28.7944,-95.3222,0180,28.8000
1981-08-04 07:00:00 UTC,2444820.791667,28.7944,-95.3222,0180,28.8000
1981-08-04 08:00:00 UTC,2444820.833333,28.7944,-95.3222,0180,28.7000
1981-08-04 09:00:00 UTC,2444820.875000,28.7944,-95.3222,0180,28.7000
1981-08-04 10:00:00 UTC,2444820.916667,28.7944,-95.3222,0180,28.7000
1981-08-04 11:00:00 UTC,2444820.958333,28.7944,-95.3222,0180,28.7000
1981-08-04 12:00:00 UTC,2444821.000000,28.7944,-95.3222,0180,28.6000
1981-08-04 13:00:00 UTC,2444821.041667,28.7944,-95.3222,0180,28.6000
1981-08-04 14:00:00 UTC,2444821.083333,28.7944,-95.3222,0180,28.6000
1981-08-04 15:00:00 UTC,2444821.125000,28.7944,-95.3222,0180,28.6000
1981-08-04 16:00:00 UTC,2444821.166667,28.7944,-95.3222,0180,28.6000
1981-08-04 17:00:00 UTC,2444821.208333,28.7944,-95.3222,0180,28.6000
1981-08-04 18:00:00 UTC,2444821.250000,28.7944,-95.3222,0180,28.6000
1981-08-04 19:00:00 UTC,2444821.291667,28.7944,-95.3222,0180,28.6000
1981-08-04 20:00:00 UTC,2444821.333333,28.7944,-95.3222,0180,28.6000
1981-08-04 21:00:00 UTC,2444821.375000,28.7944,-95.3222,0180,28.6000
1981-08-04 22:00:00 UTC,2444821.416667,28.7944,-95.3222,0180,28.6000
1981-08-04 23:00:00 UTC,2444821.458333,28.7944,-95.3222,0180,28.6000
1981-08-05 00:00:00 UTC,2444821.500000,28.7944,-95.3222,0180,28.5000
1981-08-05 01:00:00 UTC,2444821.541667,28.7944,-95.3222,0180,28.5000
1981-08-05 02:00:00 UTC,2444821.583333,28.7944,-95.3222,0180,28.5000
1981-08-05 03:00:00 UTC,2444821.625000,28.7944,-95.3222,0180,28.5000
1981-08-05 04:00:00 UTC,2444821.666667,28.7944,-95.3222,0180,28.5000
1981-08-05 05:00:00 UTC,2444821.708333,28.7944,-95.3222,0180,28.5000
1981-08-05 06:00:00 UTC,2444821.750000,28.7944,-95.3222,0180,28.5000
1981-08-05 07:00:00 UTC,2444821.791667,28.7944,-95.3222,0180,28.5000
1981-08-05 08:00:00 UTC,2444821.833333,28.7944,-95.3222,0180,28.5000
1981-08-05 09:00:00 UTC,2444821.875000,28.7944,-95.3222,0180,28.5000
1981-08-05 10:00:00 UTC,2444821.916667,28.7944,-95.3222,0180,28.5000
1981-08-05 11:00:00 UTC,2444821.958333,28.7944,-95.3222,0180,28.5000
1981-08-05 12:00:00 UTC,2444822.000000,28.7944,-95.3222,0180,28.4000
1981-08-05 13:00:00 UTC,2444822.041667,28.7944,-95.3222,0180,28.4000
1981-08-05 14:00:00 UTC,2444822.083333,28.7944,-95.3222,0180,28.4000
1981-08-05 15:00:00 UTC,2444822.125000,28.7944,-95.3222,0180,28.4000
1981-08-05 16:00:00 UTC,2444822.166667,28.7944,-95.3222,0180,28.4000
1981-08-05 17:00:00 UTC,2444822.208333,28.7944,-95.3222,0180,28.4000
1981-08-05 18:00:00 UTC,2444822.250000,28.7944,-95.3222,0180,28.4000
1981-08-05 19:00:00 UTC,2444822.291667,28.7944,-95.3222,0180,28.4000
1981-08-05 20:00:00 UTC,2444822.333333,28.7944,-95.3222,0180,28.4000
1981-08-05 21:00:00 UTC,2444822.375000,28.7944,-95.3222,0180,28.3000
1981-08-05 22:00:00 UTC,2444822.416667,28.7944,-95.3222,0180,28.3000
1981-08-05 23:00:00 UTC,2444822.458333,28.7944,-95.3222,0180,28.3000
1981-08-06 00:00:00 UTC,2444822.500000,28.7944,-95.3222,0180,28.3000
1981-08-06 01:00:00 UTC,2444822.541667,28.7944,-95.3222,0180,28.3000
1981-08-06 02:00:00 UTC,2444822.583333,28.7944,-95.3222,0180,28.3000
1981-08-06 03:00:00 UTC,2444822.625000,28.7944,-95.3222,0180,28.2000
1981-08-06 04:00:00 UTC,2444822.666667,28.7944,-95.3222,0180,28.2000
1981-08-06 05:00:00 UTC,2444822.708333,28.7944,-95.3222,0180,28.2000
1981-08-06 06:00:00 UTC,2444822.750000,28.7944,-95.3222,0180,28.2000
1981-08-06 07:00:00 UTC,2444822.791667,28.7944,-95.3222,0180,28.2000
1981-08-06 08:00:00 UTC,2444822.833333,28.7944,-95.3222,0180,28.2000
1981-08-06 09:00:00 UTC,2444822.875000,28.7944,-95.3222,0180,28.1000
1981-08-06 10:00:00 UTC,2444822.916667,28.7944,-95.3222,0180,28.1000
1981-08-06 11:00:00 UTC,2444822.958333,28.7944,-95.3222,0180,28.1000
1981-08-06 12:00:00 UTC,2444823.000000,28.7944,-95.3222,0180,28.1000
1981-08-06 13:00:00 UTC,2444823.041667,28.7944,-95.3222,0180,28.1000
1981-08-06 14:00:00 UTC,2444823.083333,28.7944,-95.3222,0180,28.1000
1981-08-06 15:00:00 UTC,2444823.125000,28.7944,-95.3222,0180,28.1000
1981-08-06 16:00:00 UTC,2444823.166667,28.7944,-95.3222,0180,28.1000
1981-08-06 17:00:00 UTC,2444823.208333,28.7944,-95.3222,0180,28.1000
1981-08-06 18:00:00 UTC,2444823.250000,28.7944,-95.3222,0180,28.1000
1981-08-06 19:00:00 UTC,2444823.291667,28.7944,-95.3222,0180,28.1000
1981-08-06 20:00:00 UTC,2444823.333333,28.7944,-95.3222,0180,28.1000
1981-08-06 21:00:00 UTC,2444823.375000,28.7944,-95.3222,0180,28.1000
1981-08-06 22:00:00 UTC,2444823.416667,28.7944,-95.3222,0180,28.1000
1981-08-06 23:00:00 UTC,2444823.458333,28.7944,-95.3222,0180,28.1000
1981-08-07 00:00:00 UTC,2444823.500000,28.7944,-95.3222,0180,28.1000
1981-08-07 01:00:00 UTC,2444823.541667,28.7944,-95.3222,0180,28.1000
1981-08-07 02:00:00 UTC,2444823.583333,28.7944,-95.3222,0180,28.1000
1981-08-07 03:00:00 UTC,2444823.625000,28.7944,-95.3222,0180,28.1000
1981-08-07 04:00:00 UTC,2444823.666667,28.7944,-95.3222,0180,28.1000
1981-08-07 05:00:00 UTC,2444823.708333,28.7944,-95.3222,0180,28.1000
1981-08-07 06:00:00 UTC,2444823.750000,28.7944,-95.3222,0180,28.1000
1981-08-07 07:00:00 UTC,2444823.791667,28.7944,-95.3222,0180,28.1000
1981-08-07 08:00:00 UTC,2444823.833333,28.7944,-95.3222,0180,28.1000
1981-08-07 09:00:00 UTC,2444823.875000,28.7944,-95.3222,0180,28.2000
1981-08-07 10:00:00 UTC,2444823.916667,28.7944,-95.3222,0180,28.2000
1981-08-07 11:00:00 UTC,2444823.958333,28.7944,-95.3222,0180,28.3000
1981-08-07 12:00:00 UTC,2444824.000000,28.7944,-95.3222,0180,28.3000
1981-08-07 13:00:00 UTC,2444824.041667,28.7944,-95.3222,0180,28.3000
1981-08-07 14:00:00 UTC,2444824.083333,28.7944,-95.3222,0180,28.4000
1981-08-07 15:00:00 UTC,2444824.125000,28.7944,-95.3222,0180,28.4000
1981-08-07 16:00:00 UTC,2444824.166667,28.7944,-95.3222,0180,28.5000
1981-08-07 17:00:00 UTC,2444824.208333,28.7944,-95.3222,0180,28.6000
1981-08-07 18:00:00 UTC,2444824.250000,28.7944,-95.3222,0180,28.7000
1981-08-07 19:00:00 UTC,2444824.291667,28.7944,-95.3222,0180,28.7000
1981-08-07 20:00:00 UTC,2444824.333333,28.7944,-95.3222,0180,28.8000
1981-08-07 21:00:00 UTC,2444824.375000,28.7944,-95.3222,0180,28.9000
1981-08-07 22:00:00 UTC,2444824.416667,28.7944,-95.3222,0180,29.0000
1981-08-07 23:00:00 UTC,2444824.458333,28.7944,-95.3222,0180,29.1000
1981-08-08 00:00:00 UTC,2444824.500000,28.7944,-95.3222,0180,29.3000
1981-08-08 01:00:00 UTC,2444824.541667,28.7944,-95.3222,0180,29.5000
1981-08-08 02:00:00 UTC,2444824.583333,28.7944,-95.3222,0180,29.6000
1981-08-08 03:00:00 UTC,2444824.625000,28.7944,-95.3222,0180,29.2000
1981-08-08 04:00:00 UTC,2444824.666667,28.7944,-95.3222,0180,29.5000
1981-08-08 05:00:00 UTC,2444824.708333,28.7944,-95.3222,0180,29.6000
1981-08-08 06:00:00 UTC,2444824.750000,28.7944,-95.3222,0180,29.8000
1981-08-08 07:00:00 UTC,2444824.791667,28.7944,-95.3222,0180,29.7000
1981-08-08 08:00:00 UTC,2444824.833333,28.7944,-95.3222,0180,29.6000
1981-08-08 09:00:00 UTC,2444824.875000,28.7944,-95.3222,0180,29.3000
1981-08-08 10:00:00 UTC,2444824.916667,28.7944,-95.3222,0180,29.0000
1981-08-08 11:00:00 UTC,2444824.958333,28.7944,-95.3222,0180,29.0000
1981-08-08 12:00:00 UTC,2444825.000000,28.7944,-95.3222,0180,28.9000
1981-08-08 13:00:00 UTC,2444825.041667,28.7944,-95.3222,0180,28.8000
1981-08-08 14:00:00 UTC,2444825.083333,28.7944,-95.3222,0180,28.7000
1981-08-08 15:00:00 UTC,2444825.125000,28.7944,-95.3222,0180,28.6000
1981-08-08 16:00:00 UTC,2444825.166667,28.7944,-95.3222,0180,28.7000
1981-08-08 17:00:00 UTC,2444825.208333,28.7944,-95.3222,0180,28.8000
1981-08-08 18:00:00 UTC,2444825.250000,28.7944,-95.3222,0180,29.0000
1981-08-08 19:00:00 UTC,2444825.291667,28.7944,-95.3222,0180,29.2000
1981-08-08 20:00:00 UTC,2444825.333333,28.7944,-95.3222,0180,29.4000
1981-08-08 21:00:00 UTC,2444825.375000,28.7944,-95.3222,0180,29.5000
1981-08-08 22:00:00 UTC,2444825.416667,28.7944,-95.3222,0180,29.5000
1981-08-08 23:00:00 UTC,2444825.458333,28.7944,-95.3222,0180,29.5000
1981-08-09 00:00:00 UTC,2444825.500000,28.7944,-95.3222,0180,29.6000
1981-08-09 01:00:00 UTC,2444825.541667,28.7944,-95.3222,0180,29.7000
1981-08-09 02:00:00 UTC,2444825.583333,28.7944,-95.3222,0180,29.7000
1981-08-09 03:00:00 UTC,2444825.625000,28.7944,-95.3222,0180,29.7000
1981-08-09 04:00:00 UTC,2444825.666667,28.7944,-95.3222,0180,29.7000
1981-08-09 05:00:00 UTC,2444825.708333,28.7944,-95.3222,0180,29.7000
1981-08-09 06:00:00 UTC,2444825.750000,28.7944,-95.3222,0180,29.7000
1981-08-09 07:00:00 UTC,2444825.791667,28.7944,-95.3222,0180,29.7000
1981-08-09 08:00:00 UTC,2444825.833333,28.7944,-95.3222,0180,29.8000
1981-08-09 09:00:00 UTC,2444825.875000,28.7944,-95.3222,0180,30.0000
1981-08-09 10:00:00 UTC,2444825.916667,28.7944,-95.3222,0180,30.0000
1981-08-09 11:00:00 UTC,2444825.958333,28.7944,-95.3222,0180,30.0000
1981-08-09 12:00:00 UTC,2444826.000000,28.7944,-95.3222,0180,30.0000
1981-08-09 13:00:00 UTC,2444826.041667,28.7944,-95.3222,0180,30.0000
1981-08-09 14:00:00 UTC,2444826.083333,28.7944,-95.3222,0180,30.0000
1981-08-09 15:00:00 UTC,2444826.125000,28.7944,-95.3222,0180,30.0000
1981-08-09 16:00:00 UTC,2444826.166667,28.7944,-95.3222,0180,30.0000
1981-08-09 17:00:00 UTC,2444826.208333,28.7944,-95.3222,0180,30.0000
1981-08-09 18:00:00 UTC,2444826.250000,28.7944,-95.3222,0180,30.0000
1981-08-09 19:00:00 UTC,2444826.291667,28.7944,-95.3222,0180,30.0000
1981-08-09 20:00:00 UTC,2444826.333333,28.7944,-95.3222,0180,30.0000
1981-08-09 21:00:00 UTC,2444826.375000,28.7944,-95.3222,0180,30.0000
1981-08-09 22:00:00 UTC,2444826.416667,28.7944,-95.3222,0180,30.0000
1981-08-09 23:00:00 UTC,2444826.458333,28.7944,-95.3222,0180,30.0000
1981-08-10 00:00:00 UTC,2444826.500000,28.7944,-95.3222,0180,30.0000
1981-08-10 01:00:00 UTC,2444826.541667,28.7944,-95.3222,0180,30.0000
1981-08-10 02:00:00 UTC,2444826.583333,28.7944,-95.3222,0180,30.0000
1981-08-10 03:00:00 UTC,2444826.625000,28.7944,-95.3222,0180,30.0000
1981-08-10 04:00:00 UTC,2444826.666667,28.7944,-95.3222,0180,30.0000
1981-08-10 05:00:00 UTC,2444826.708333,28.7944,-95.3222,0180,30.0000
1981-08-10 06:00:00 UTC,2444826.750000,28.7944,-95.3222,0180,30.0000
1981-08-10 07:00:00 UTC,2444826.791667,28.7944,-95.3222,0180,30.0000
1981-08-10 08:00:00 UTC,2444826.833333,28.7944,-95.3222,0180,30.0000
1981-08-10 09:00:00 UTC,2444826.875000,28.7944,-95.3222,0180,30.0000
1981-08-10 10:00:00 UTC,2444826.916667,28.7944,-95.3222,0180,29.9000
1981-08-10 11:00:00 UTC,2444826.958333,28.7944,-95.3222,0180,29.9000
1981-08-10 12:00:00 UTC,2444827.000000,28.7944,-95.3222,0180,29.9000
1981-08-10 13:00:00 UTC,2444827.041667,28.7944,-95.3222,0180,29.9000
1981-08-10 14:00:00 UTC,2444827.083333,28.7944,-95.3222,0180,29.9000
1981-08-10 15:00:00 UTC,2444827.125000,28.7944,-95.3222,0180,29.9000
1981-08-10 16:00:00 UTC,2444827.166667,28.7944,-95.3222,0180,30.0000
1981-08-10 17:00:00 UTC,2444827.208333,28.7944,-95.3222,0180,30.0000
1981-08-10 18:00:00 UTC,2444827.250000,28.7944,-95.3222,0180,30.0000
1981-08-10 19:00:00 UTC,2444827.291667,28.7944,-95.3222,0180,30.0000
1981-08-10 20:00:00 UTC,2444827.333333,28.7944,-95.3222,0180,30.0000
1981-08-10 21:00:00 UTC,2444827.375000,28.7944,-95.3222,0180,30.0000
1981-08-10 22:00:00 UTC,2444827.416667,28.7944,-95.3222,0180,30.0000
1981-08-10 23:00:00 UTC,2444827.458333,28.7944,-95.3222,0180,30.0000
1981-08-11 00:00:00 UTC,2444827.500000,28.7944,-95.3222,0180,30.0000
1981-08-11 01:00:00 UTC,2444827.541667,28.7944,-95.3222,0180,30.0000
1981-08-11 02:00:00 UTC,2444827.583333,28.7944,-95.3222,0180,30.0000
1981-08-11 03:00:00 UTC,2444827.625000,28.7944,-95.3222,0180,30.0000
1981-08-11 04:00:00 UTC,2444827.666667,28.7944,-95.3222,0180,30.0000
1981-08-11 05:00:00 UTC,2444827.708333,28.7944,-95.3222,0180,29.4000
1981-08-11 06:00:00 UTC,2444827.750000,28.7944,-95.3222,0180,29.1000
1981-08-11 07:00:00 UTC,2444827.791667,28.7944,-95.3222,0180,29.0000
1981-08-11 08:00:00 UTC,2444827.833333,28.7944,-95.3222,0180,29.0000
1981-08-11 09:00:00 UTC,2444827.875000,28.7944,-95.3222,0180,28.9000
1981-08-11 10:00:00 UTC,2444827.916667,28.7944,-95.3222,0180,28.9000
1981-08-11 11:00:00 UTC,2444827.958333,28.7944,-95.3222,0180,28.9000
1981-08-11 12:00:00 UTC,2444828.000000,28.7944,-95.3222,0180,28.9000
1981-08-11 13:00:00 UTC,2444828.041667,28.7944,-95.3222,0180,28.9000
1981-08-11 14:00:00 UTC,2444828.083333,28.7944,-95.3222,0180,28.8000
1981-08-11 15:00:00 UTC,2444828.125000,28.7944,-95.3222,0180,28.8000
1981-08-11 16:00:00 UTC,2444828.166667,28.7944,-95.3222,0180,28.8000
1981-08-11 17:00:00 UTC,2444828.208333,28.7944,-95.3222,0180,28.8000
1981-08-11 18:00:00 UTC,2444828.250000,28.7944,-95.3222,0180,28.8000
1981-08-11 19:00:00 UTC,2444828.291667,28.7944,-95.3222,0180,28.8000
1981-08-11 20:00:00 UTC,2444828.333333,28.7944,-95.3222,0180,28.7000
1981-08-11 21:00:00 UTC,2444828.375000,28.7944,-95.3222,0180,28.7000
1981-08-11 22:00:00 UTC,2444828.416667,28.7944,-95.3222,0180,28.7000
1981-08-11 23:00:00 UTC,2444828.458333,28.7944,-95.3222,0180,28.8000
1981-08-12 00:00:00 UTC,2444828.500000,28.7944,-95.3222,0180,28.8000
1981-08-12 01:00:00 UTC,2444828.541667,28.7944,-95.3222,0180,28.8000
1981-08-12 02:00:00 UTC,2444828.583333,28.7944,-95.3222,0180,28.8000
1981-08-12 03:00:00 UTC,2444828.625000,28.7944,-95.3222,0180,28.8000
1981-08-12 04:00:00 UTC,2444828.666667,28.7944,-95.3222,0180,28.8000
1981-08-12 05:00:00 UTC,2444828.708333,28.7944,-95.3222,0180,28.8000
1981-08-12 06:00:00 UTC,2444828.750000,28.7944,-95.3222,0180,28.9000
1981-08-12 07:00:00 UTC,2444828.791667,28.7944,-95.3222,0180,29.0000
1981-08-12 08:00:00 UTC,2444828.833333,28.7944,-95.3222,0180,29.0000
1981-08-12 09:00:00 UTC,2444828.875000,28.7944,-95.3222,0180,29.0000
1981-08-12 10:00:00 UTC,2444828.916667,28.7944,-95.3222,0180,29.0000
1981-08-12 11:00:00 UTC,2444828.958333,28.7944,-95.3222,0180,29.0000
1981-08-12 12:00:00 UTC,2444829.000000,28.7944,-95.3222,0180,29.0000
1981-08-12 13:00:00 UTC,2444829.041667,28.7944,-95.3222,0180,28.9000
1981-08-12 14:00:00 UTC,2444829.083333,28.7944,-95.3222,0180,28.9000
1981-08-12 15:00:00 UTC,2444829.125000,28.7944,-95.3222,0180,28.9000
1981-08-12 16:00:00 UTC,2444829.166667,28.7944,-95.3222,0180,28.9000
1981-08-12 17:00:00 UTC,2444829.208333,28.7944,-95.3222,0180,29.0000
1981-08-12 18:00:00 UTC,2444829.250000,28.7944,-95.3222,0180,29.0000
1981-08-12 19:00:00 UTC,2444829.291667,28.7944,-95.3222,0180,29.0000
1981-08-12 20:00:00 UTC,2444829.333333,28.7944,-95.3222,0180,29.0000
1981-08-12 21:00:00 UTC,2444829.375000,28.7944,-95.3222,0180,29.0000
1981-08-12 22:00:00 UTC,2444829.416667,28.7944,-95.3222,0180,29.0000
1981-08-12 23:00:00 UTC,2444829.458333,28.7944,-95.3222,0180,29.0000
1981-08-13 00:00:00 UTC,2444829.500000,28.7944,-95.3222,0180,29.1000
1981-08-13 01:00:00 UTC,2444829.541667,28.7944,-95.3222,0180,29.2000
1981-08-13 02:00:00 UTC,2444829.583333,28.7944,-95.3222,0180,29.3000
1981-08-13 03:00:00 UTC,2444829.625000,28.7944,-95.3222,0180,29.7000
1981-08-13 04:00:00 UTC,2444829.666667,28.7944,-95.3222,0180,30.0000
1981-08-13 05:00:00 UTC,2444829.708333,28.7944,-95.3222,0180,30.0000
1981-08-13 06:00:00 UTC,2444829.750000,28.7944,-95.3222,0180,30.0000
1981-08-13 07:00:00 UTC,2444829.791667,28.7944,-95.3222,0180,30.0000
1981-08-13 08:00:00 UTC,2444829.833333,28.7944,-95.3222,0180,30.0000
1981-08-13 09:00:00 UTC,2444829.875000,28.7944,-95.3222,0180,30.0000
1981-08-13 10:00:00 UTC,2444829.916667,28.7944,-95.3222,0180,30.0000
1981-08-13 11:00:00 UTC,2444829.958333,28.7944,-95.3222,0180,30.0000
1981-08-13 12:00:00 UTC,2444830.000000,28.7944,-95.3222,0180,30.0000
1981-08-13 13:00:00 UTC,2444830.041667,28.7944,-95.3222,0180,30.0000
1981-08-13 14:00:00 UTC,2444830.083333,28.7944,-95.3222,0180,30.0000
1981-08-13 15:00:00 UTC,2444830.125000,28.7944,-95.3222,0180,30.0000
1981-08-13 16:00:00 UTC,2444830.166667,28.7944,-95.3222,0180,30.0000
1981-08-13 17:00:00 UTC,2444830.208333,28.7944,-95.3222,0180,30.0000
1981-08-13 18:00:00 UTC,2444830.250000,28.7944,-95.3222,0180,30.0000
1981-08-13 19:00:00 UTC,2444830.291667,28.7944,-95.3222,0180,30.0000
1981-08-13 20:00:00 UTC,2444830.333333,28.7944,-95.3222,0180,30.0000
1981-08-13 21:00:00 UTC,2444830.375000,28.7944,-95.3222,0180,30.0000
1981-08-13 22:00:00 UTC,2444830.416667,28.7944,-95.3222,0180,30.0000
1981-08-13 23:00:00 UTC,2444830.458333,28.7944,-95.3222,0180,30.0000
1981-08-14 00:00:00 UTC,2444830.500000,28.7944,-95.3222,0180,30.1000
1981-08-14 01:00:00 UTC,2444830.541667,28.7944,-95.3222,0180,30.1000
1981-08-14 02:00:00 UTC,2444830.583333,28.7944,-95.3222,0180,30.2000
1981-08-14 03:00:00 UTC,2444830.625000,28.7944,-95.3222,0180,30.2000
1981-08-14 04:00:00 UTC,2444830.666667,28.7944,-95.3222,0180,30.2000
1981-08-14 05:00:00 UTC,2444830.708333,28.7944,-95.3222,0180,30.3000
1981-08-14 06:00:00 UTC,2444830.750000,28.7944,-95.3222,0180,30.3000
1981-08-14 07:00:00 UTC,2444830.791667,28.7944,-95.3222,0180,30.3000
1981-08-14 08:00:00 UTC,2444830.833333,28.7944,-95.3222,0180,30.3000
1981-08-14 09:00:00 UTC,2444830.875000,28.7944,-95.3222,0180,30.3000
1981-08-14 10:00:00 UTC,2444830.916667,28.7944,-95.3222,0180,30.2000
1981-08-14 11:00:00 UTC,2444830.958333,28.7944,-95.3222,0180,30.2000
1981-08-14 12:00:00 UTC,2444831.000000,28.7944,-95.3222,0180,30.2000
1981-08-14 13:00:00 UTC,2444831.041667,28.7944,-95.3222,0180,30.2000
1981-08-14 14:00:00 UTC,2444831.083333,28.7944,-95.3222,0180,30.2000
1981-08-14 15:00:00 UTC,2444831.125000,28.7944,-95.3222,0180,30.2000
1981-08-14 16:00:00 UTC,2444831.166667,28.7944,-95.3222,0180,30.2000
1981-08-14 17:00:00 UTC,2444831.208333,28.7944,-95.3222,0180,30.2000
1981-08-14 18:00:00 UTC,2444831.250000,28.7944,-95.3222,0180,30.2000
1981-08-14 19:00:00 UTC,2444831.291667,28.7944,-95.3222,0180,30.2000
1981-08-14 20:00:00 UTC,2444831.333333,28.7944,-95.3222,0180,30.2000
1981-08-14 21:00:00 UTC,2444831.375000,28.7944,-95.3222,0180,30.2000
1981-08-14 22:00:00 UTC,2444831.416667,28.7944,-95.3222,0180,30.2000
1981-08-14 23:00:00 UTC,2444831.458333,28.7944,-95.3222,0180,30.2000
1981-08-15 00:00:00 UTC,2444831.500000,28.7944,-95.3222,0180,30.2000
1981-08-15 01:00:00 UTC,2444831.541667,28.7944,-95.3222,0180,30.2000
1981-08-15 02:00:00 UTC,2444831.583333,28.7944,-95.3222,0180,30.2000
1981-08-15 03:00:00 UTC,2444831.625000,28.7944,-95.3222,0180,30.3000
1981-08-15 04:00:00 UTC,2444831.666667,28.7944,-95.3222,0180,30.3000
1981-08-15 05:00:00 UTC,2444831.708333,28.7944,-95.3222,0180,30.3000
1981-08-15 06:00:00 UTC,2444831.750000,28.7944,-95.3222,0180,30.3000
1981-08-15 07:00:00 UTC,2444831.791667,28.7944,-95.3222,0180,30.3000
1981-08-15 08:00:00 UTC,2444831.833333,28.7944,-95.3222,0180,30.3000